Regional Weather Roundup
Issued by NWS

Home | Current Version | Previous Version | Graphics & Text | Print | Product List | Glossary On
Versions: 1 2 3 4 5 6 7 8 9 10 11 12 13 14 15 16 17 18 19 20 21 22 23 24 25 26 27 28 29 30 31 32 33 34 35 36 37 38 39 40 41 42 43 44 45 46 47 48 49 50
000
ASUS43 KFSD 011102
RWRSD

WEATHER ROUNDUP FOR SOUTH DAKOTA
NATIONAL WEATHER SERVICE SIOUX FALLS SD
600 AM CDT FRI AUG 01 2014

NOTE: "FAIR" INDICATES FEW OR NO CLOUDS BELOW 12,000 FEET WITH NO
SIGNIFICANT WEATHER AND/OR OBSTRUCTIONS TO VISIBILITY.


SDZ001>005-009-010-012>017-011200-
NORTHWEST AND NORTH CENTRAL SOUTH DAKOTA

CITY           SKY/WX    TMP DP  RH WIND       PRES   REMARKS
BUFFALO          N/A     60  48  64 SE5       30.00F
FAITH            N/A     62  54  74 SE10      30.06R
MOBRIDGE       CLEAR     60  55  83 E7        30.04F
$$

SDZ012>016-024>037-041>051-057-063-072>074-011200-
SOUTHWEST AND SOUTH CENTRAL SOUTH DAKOTA

CITY           SKY/WX    TMP DP  RH WIND       PRES   REMARKS
RAPID CTY ARPT CLEAR     61  49  64 SW5       30.10S
PIERRE         PTCLDY    61  59  93 E6        30.04S
CUSTER         PTCLDY    57  43  59 W6        30.26S
ELLSWORTH AFB  CLEAR     62  49  61 W8        30.09F
PHILIP         CLEAR     54  49  83 CALM      30.06R
PINE RIDGE     PTCLDY    48  46  93 E3        30.14R
WINNER         FAIR      63  60  90 S5        30.08R
$$

SDZ004>011-016>023-039-040-011200-
NORTHEAST SOUTH DAKOTA

CITY           SKY/WX    TMP DP  RH WIND       PRES   REMARKS
ABERDEEN       CLEAR     50  50 100 CALM      30.08R
WATERTOWN      CLEAR     55  53  93 CALM      30.09R
SISSETON         N/A     58  57  97 CALM      30.05R
$$

SDZ017-020-022-023-036>040-048>070-011200-
SOUTHEAST SOUTH DAKOTA

CITY           SKY/WX    TMP DP  RH WIND       PRES   REMARKS
SIOUX FALLS    CLEAR     55  54  96 CALM      30.08R
HURON          CLEAR     55  54  96 CALM      30.07R
CHAMBERLAIN    PTCLDY    57  56  94 CALM      30.07S
MITCHELL       CLEAR     57  56  96 CALM      30.08R
YANKTON          N/A     57  55  94 CALM      30.08R VSB<1/4
$$

ABBREVIATIONS USED IN REMARKS
   TC - TEMPERATURE IN CELSIUS
  WCI - WIND CHILL INDEX
   HX - HEAT INDEX
  VSB - VISIBILITY




USA.gov is the U.S. government's official web portal to all federal, state and local government web resources and services.